TQQ026 MHTG-SKPS

Flight info

Callsign TQQ026
Flight time 2h 34m
Altitude 33000
Route LIBIS1D LIBIS UA502 ULAPO/N0468F340 UA502 POXON/N0467F350 DCT VAPUK DCT PAKEX PAKEX1A
Aircraft B738/M-SDE2E3FGHIRWXY/LB1

Departure

Time 2026-05-05 17:00
Airport Toncontín Airport (MHTG)

Arrival

Time 2026-05-05 19:35
Airport Antonio Nariño Airport (SKPS)
Time Latitude Longitude Altitude Speed Heading
2026-05-05 16:30 14.06061 -87.21877 3272 ft 0 kts 288°
2026-05-05 16:47 14.06057 -87.21863 3272 ft 4 kts 297°
2026-05-05 16:47 14.06035 -87.21837 3270 ft 4 kts 324°
2026-05-05 16:47 14.06028 -87.21831 3270 ft 0 kts 326°
2026-05-05 16:48 14.06028 -87.21832 3270 ft 0 kts 326°
2026-05-05 16:50 14.06033 -87.21835 3271 ft 2 kts 320°
2026-05-05 16:50 14.06028 -87.21847 3272 ft 2 kts 212°
2026-05-05 16:51 14.06012 -87.21843 3271 ft 3 kts 167°
2026-05-05 16:51 14.05992 -87.21843 3275 ft 4 kts 188°
2026-05-05 16:51 14.05960 -87.21853 3279 ft 6 kts 201°
2026-05-05 16:51 14.05924 -87.21867 3282 ft 5 kts 201°
2026-05-05 16:52 14.05889 -87.21880 3284 ft 5 kts 200°
2026-05-05 16:52 14.05854 -87.21892 3285 ft 6 kts 198°
2026-05-05 16:52 14.05814 -87.21905 3287 ft 7 kts 198°
2026-05-05 16:52 14.05766 -87.21921 3288 ft 8 kts 198°
2026-05-05 16:53 14.05710 -87.21939 3290 ft 11 kts 198°
2026-05-05 16:53 14.05636 -87.21967 3294 ft 12 kts 200°
2026-05-05 16:53 14.05561 -87.21995 3298 ft 12 kts 200°
2026-05-05 16:53 14.05492 -87.22019 3300 ft 12 kts 197°
2026-05-05 16:54 14.05419 -87.22042 3302 ft 13 kts 193°
2026-05-05 16:54 14.05401 -87.22046 3302 ft 0 kts 188°
2026-05-05 16:58 14.05380 -87.22049 3303 ft 6 kts 188°
2026-05-05 16:58 14.05334 -87.22054 3305 ft 8 kts 173°
2026-05-05 16:58 14.05295 -87.22016 3306 ft 7 kts 122°
2026-05-05 16:58 14.05314 -87.21988 3305 ft 7 kts 10°
2026-05-05 16:59 14.05355 -87.21976 3305 ft 0 kts 16°
2026-05-05 16:59 14.05399 -87.21962 3304 ft 32 kts 17°
2026-05-05 17:00 14.05799 -87.21821 3286 ft 104 kts 19°
2026-05-05 17:00 14.06669 -87.21518 3260 ft 168 kts 20°
2026-05-05 17:00 14.07841 -87.21103 3539 ft 202 kts 15°
2026-05-05 17:00 14.09204 -87.20914 4045 ft 218 kts
2026-05-05 17:01 14.10640 -87.20892 4875 ft 213 kts
2026-05-05 17:01 14.12011 -87.20751 5833 ft 199 kts
2026-05-05 17:01 14.13291 -87.20724 6603 ft 196 kts
2026-05-05 17:01 14.14568 -87.20739 7235 ft 202 kts
2026-05-05 17:02 14.15858 -87.20789 7924 ft 198 kts 359°
2026-05-05 17:02 14.17178 -87.20890 8817 ft 192 kts 358°
2026-05-05 17:02 14.18459 -87.20993 9503 ft 198 kts
2026-05-05 17:02 14.19776 -87.20979 9999 ft 206 kts
2026-05-05 17:03 14.21134 -87.20812 10241 ft 223 kts 12°
2026-05-05 17:03 14.22652 -87.20541 10585 ft 236 kts 11°
2026-05-05 17:03 14.24238 -87.20312 10856 ft 253 kts 11°
2026-05-05 17:03 14.25901 -87.20091 11333 ft 259 kts
2026-05-05 17:04 14.27519 -87.19932 11762 ft 266 kts
2026-05-05 17:04 14.29290 -87.19772 12189 ft 278 kts
2026-05-05 17:04 14.31165 -87.19612 12670 ft 290 kts
2026-05-05 17:04 14.33050 -87.19316 13341 ft 292 kts 21°
2026-05-05 17:05 14.34784 -87.18336 13746 ft 303 kts 43°
2026-05-05 17:05 14.36064 -87.16687 14086 ft 315 kts 65°
2026-05-05 17:05 14.36736 -87.14589 14635 ft 320 kts 77°
2026-05-05 17:05 14.37225 -87.12471 15278 ft 322 kts 75°
2026-05-05 17:06 14.37786 -87.10165 15733 ft 335 kts 76°
2026-05-05 17:06 14.38305 -87.07801 15953 ft 352 kts 78°
2026-05-05 17:06 14.38751 -87.05328 16356 ft 361 kts 83°
2026-05-05 17:06 14.38861 -87.02691 16442 ft 379 kts 92°
2026-05-05 17:07 14.38336 -87.00100 16929 ft 386 kts 110°
2026-05-05 17:07 14.36990 -86.97756 17404 ft 396 kts 128°
2026-05-05 17:07 14.34991 -86.95922 18120 ft 396 kts 140°
2026-05-05 17:07 14.32922 -86.94348 18998 ft 386 kts 143°
2026-05-05 17:08 14.30625 -86.92884 19354 ft 396 kts 146°
2026-05-05 17:08 14.28349 -86.91434 19428 ft 408 kts 143°
2026-05-05 17:08 14.26023 -86.89723 19623 ft 416 kts 140°
2026-05-05 17:08 14.23732 -86.87884 20019 ft 419 kts 138°
2026-05-05 17:09 14.21358 -86.86133 20454 ft 424 kts 150°
2026-05-05 17:09 14.18573 -86.85256 20862 ft 433 kts 171°
2026-05-05 17:09 14.15589 -86.85374 21297 ft 441 kts 189°
2026-05-05 17:09 14.12750 -86.86375 21685 ft 448 kts 207°
2026-05-05 17:10 14.10217 -86.88180 22058 ft 453 kts 216°
2026-05-05 17:10 14.07856 -86.90067 22413 ft 456 kts 217°
2026-05-05 17:10 14.05452 -86.92014 22749 ft 459 kts 217°
2026-05-05 17:10 14.02932 -86.94048 23090 ft 461 kts 217°
2026-05-05 17:11 14.00392 -86.96079 23492 ft 463 kts 216°
2026-05-05 17:11 13.97834 -86.98104 23836 ft 465 kts 216°
2026-05-05 17:11 13.95263 -87.00127 24145 ft 466 kts 216°
2026-05-05 17:11 13.92676 -87.02156 24470 ft 468 kts 216°
2026-05-05 17:12 13.90080 -87.04188 24752 ft 469 kts 216°
2026-05-05 17:12 13.87480 -87.06222 25056 ft 471 kts 216°
2026-05-05 17:12 13.84868 -87.08266 25354 ft 473 kts 216°
2026-05-05 17:12 13.82245 -87.10319 25683 ft 474 kts 216°
2026-05-05 17:13 13.79623 -87.12372 25984 ft 475 kts 216°
2026-05-05 17:13 13.76984 -87.14437 26270 ft 477 kts 216°
2026-05-05 17:13 13.74342 -87.16504 26499 ft 478 kts 217°
2026-05-05 17:13 13.71719 -87.18556 26769 ft 480 kts 217°
2026-05-05 17:14 13.69061 -87.20634 27037 ft 481 kts 217°
2026-05-05 17:14 13.66280 -87.22554 27262 ft 482 kts 204°
2026-05-05 17:14 13.63089 -87.23550 27489 ft 481 kts 186°
2026-05-05 17:14 13.59768 -87.23579 27708 ft 478 kts 171°
2026-05-05 17:15 13.56773 -87.22880 27948 ft 476 kts 158°
2026-05-05 17:15 13.53905 -87.21410 28133 ft 475 kts 144°
2026-05-05 17:15 13.51264 -87.19480 28375 ft 475 kts 142°
2026-05-05 17:15 13.48755 -87.17564 28563 ft 477 kts 141°
2026-05-05 17:16 13.46090 -87.15512 28675 ft 480 kts 141°
2026-05-05 17:16 13.43450 -87.13498 28819 ft 483 kts 142°
2026-05-05 17:16 13.40769 -87.11476 29049 ft 484 kts 142°
2026-05-05 17:16 13.38094 -87.09480 29311 ft 485 kts 142°
2026-05-05 17:17 13.35373 -87.07463 29623 ft 484 kts 142°
2026-05-05 17:17 13.32747 -87.05521 29919 ft 483 kts 142°
2026-05-05 17:17 13.30096 -87.03562 30168 ft 483 kts 143°
2026-05-05 17:17 13.27409 -87.01576 30398 ft 483 kts 143°
2026-05-05 17:18 13.24732 -86.99596 30647 ft 483 kts 143°
2026-05-05 17:18 13.22101 -86.97650 30915 ft 482 kts 143°
2026-05-05 17:18 13.19492 -86.95719 31174 ft 482 kts 143°
2026-05-05 17:18 13.16842 -86.93759 31421 ft 483 kts 143°
2026-05-05 17:19 13.14180 -86.91791 31606 ft 484 kts 143°
2026-05-05 17:19 13.11541 -86.89815 31885 ft 483 kts 142°
2026-05-05 17:19 13.08901 -86.87818 32304 ft 479 kts 142°
2026-05-05 17:19 13.07648 -86.86868 32488 ft 478 kts 142°
2026-05-05 17:22 13.03819 -86.83963 32882 ft 478 kts 143°
2026-05-05 17:22 13.01133 -86.81930 33106 ft 480 kts 143°
2026-05-05 17:22 12.98461 -86.79912 33393 ft 479 kts 143°
2026-05-05 17:22 12.95771 -86.77884 33747 ft 478 kts 143°
2026-05-05 17:23 12.93091 -86.75870 34054 ft 477 kts 143°
2026-05-05 17:23 12.90411 -86.73877 34316 ft 476 kts 143°
2026-05-05 17:23 12.87729 -86.71892 34559 ft 476 kts 143°
2026-05-05 17:23 12.85039 -86.69903 34824 ft 475 kts 144°
2026-05-05 17:24 12.82385 -86.67941 34926 ft 478 kts 144°
2026-05-05 17:24 12.76993 -86.63949 34930 ft 479 kts 143°
2026-05-05 17:25 12.71618 -86.59968 34917 ft 474 kts 143°
2026-05-05 17:25 12.66303 -86.56031 34924 ft 474 kts 143°
2026-05-05 17:26 12.60950 -86.52069 34926 ft 475 kts 143°
2026-05-05 17:26 12.55593 -86.48105 34912 ft 476 kts 143°
2026-05-05 17:27 12.50256 -86.44159 34919 ft 477 kts 143°
2026-05-05 17:27 12.45027 -86.40295 34892 ft 477 kts 143°
2026-05-05 17:28 12.39796 -86.36431 34920 ft 477 kts 143°
2026-05-05 17:28 12.34412 -86.32456 34905 ft 477 kts 143°
2026-05-05 17:29 12.29226 -86.28629 34920 ft 477 kts 143°
2026-05-05 17:29 12.23848 -86.24661 34915 ft 477 kts 143°
2026-05-05 17:30 12.18465 -86.20692 34912 ft 476 kts 143°
2026-05-05 17:30 12.13132 -86.16693 34908 ft 475 kts 140°
2026-05-05 17:31 12.08161 -86.12271 34906 ft 474 kts 137°
2026-05-05 17:31 12.03270 -86.07761 34916 ft 473 kts 137°
2026-05-05 17:32 11.98374 -86.03286 34918 ft 472 kts 137°
2026-05-05 17:32 11.93497 -85.98871 34929 ft 471 kts 137°
2026-05-05 17:33 11.88591 -85.94445 34922 ft 470 kts 138°
2026-05-05 17:33 11.84517 -85.90772 34921 ft 470 kts 137°
2026-05-05 17:34 11.79846 -85.86559 34928 ft 469 kts 138°
2026-05-05 17:34 11.75039 -85.82227 34926 ft 469 kts 137°
2026-05-05 17:35 11.70234 -85.77897 34926 ft 470 kts 137°
2026-05-05 17:35 11.65379 -85.73525 34929 ft 470 kts 137°
2026-05-05 17:36 11.60567 -85.69193 34923 ft 471 kts 137°
2026-05-05 17:36 11.55654 -85.64772 34933 ft 472 kts 137°
2026-05-05 17:37 11.50724 -85.60339 34929 ft 473 kts 138°
2026-05-05 17:37 11.45782 -85.55896 34921 ft 474 kts 137°
2026-05-05 17:38 11.40839 -85.51454 34936 ft 474 kts 138°
2026-05-05 17:38 11.35943 -85.46973 34928 ft 473 kts 136°
2026-05-05 17:39 11.31144 -85.42378 34934 ft 473 kts 136°
2026-05-05 17:39 11.26363 -85.37793 34935 ft 472 kts 136°
2026-05-05 17:40 11.21565 -85.33223 34931 ft 472 kts 136°
2026-05-05 17:40 11.16769 -85.28670 34930 ft 472 kts 136°
2026-05-05 17:41 11.11964 -85.24107 34942 ft 472 kts 136°
2026-05-05 17:41 11.07148 -85.19535 34942 ft 474 kts 135°
2026-05-05 17:42 11.02289 -85.14991 34941 ft 476 kts 137°
2026-05-05 17:42 10.97303 -85.10599 34955 ft 477 kts 138°
2026-05-05 17:43 10.92371 -85.06292 34953 ft 478 kts 138°
2026-05-05 17:43 10.87363 -85.01885 34943 ft 478 kts 138°
2026-05-05 17:44 10.82489 -84.97577 34937 ft 476 kts 138°
2026-05-05 17:44 10.77498 -84.93162 34938 ft 475 kts 138°
2026-05-05 17:45 10.72489 -84.88734 34937 ft 474 kts 138°
2026-05-05 17:45 10.67520 -84.84346 34942 ft 472 kts 138°
2026-05-05 17:46 10.62594 -84.79997 34955 ft 472 kts 138°
2026-05-05 17:46 10.57640 -84.75626 34950 ft 471 kts 138°
2026-05-05 17:47 10.52704 -84.71272 34950 ft 472 kts 137°
2026-05-05 17:47 10.47709 -84.66868 34956 ft 473 kts 138°
2026-05-05 17:48 10.42773 -84.62516 34969 ft 473 kts 139°
2026-05-05 17:48 10.37794 -84.58130 34967 ft 474 kts 138°
2026-05-05 17:49 10.32809 -84.53748 34970 ft 473 kts 139°
2026-05-05 17:49 10.27860 -84.49411 34967 ft 474 kts 138°
2026-05-05 17:50 10.25599 -84.47430 34963 ft 474 kts 138°
2026-05-05 17:50 10.20610 -84.43056 34970 ft 474 kts 138°
2026-05-05 17:51 10.15642 -84.38702 34979 ft 474 kts 139°
2026-05-05 17:51 10.10652 -84.34330 35059 ft 473 kts 138°
2026-05-05 17:52 10.09644 -84.33447 35060 ft 472 kts 138°
2026-05-05 17:54 10.06206 -84.30436 35081 ft 471 kts 138°
2026-05-05 17:55 10.01249 -84.26095 35090 ft 470 kts 139°
2026-05-05 17:55 9.96333 -84.21753 35090 ft 468 kts 138°
2026-05-05 17:56 9.91538 -84.17310 35118 ft 466 kts 137°
2026-05-05 17:56 9.90362 -84.16210 35120 ft 466 kts 137°
2026-05-05 17:57 9.85590 -84.11759 35116 ft 466 kts 137°
2026-05-05 17:57 9.83201 -84.09543 35005 ft 465 kts 137°
2026-05-05 17:57 9.80814 -84.07335 35006 ft 465 kts 137°
2026-05-05 17:58 9.76039 -84.02922 35022 ft 465 kts 137°
2026-05-05 17:58 9.71255 -83.98503 35019 ft 466 kts 137°
2026-05-05 17:59 9.66463 -83.94077 35020 ft 466 kts 137°
2026-05-05 17:59 9.61669 -83.89651 35022 ft 466 kts 137°
2026-05-05 18:00 9.56876 -83.85236 35017 ft 466 kts 137°
2026-05-05 18:00 9.52073 -83.80818 35023 ft 466 kts 137°
2026-05-05 18:01 9.47272 -83.76402 34992 ft 466 kts 137°
2026-05-05 18:01 9.42511 -83.72023 35007 ft 467 kts 137°
2026-05-05 18:02 9.37699 -83.67598 35016 ft 467 kts 137°
2026-05-05 18:02 9.32893 -83.63181 34964 ft 466 kts 137°
2026-05-05 18:03 9.28094 -83.58771 34977 ft 466 kts 137°
2026-05-05 18:03 9.23296 -83.54364 34980 ft 465 kts 137°
2026-05-05 18:04 9.18503 -83.49964 34982 ft 465 kts 137°
2026-05-05 18:04 9.13722 -83.45576 34952 ft 465 kts 137°
2026-05-05 18:05 9.08983 -83.41228 34951 ft 465 kts 137°
2026-05-05 18:05 9.04204 -83.36846 34954 ft 465 kts 137°
2026-05-05 18:06 8.99411 -83.32452 34926 ft 465 kts 137°
2026-05-05 18:06 8.94614 -83.28056 34941 ft 465 kts 137°
2026-05-05 18:07 8.89867 -83.23707 34946 ft 464 kts 137°
2026-05-05 18:07 8.85071 -83.19315 34919 ft 464 kts 136°
2026-05-05 18:08 8.80284 -83.14933 34936 ft 464 kts 136°
2026-05-05 18:08 8.75532 -83.10584 34931 ft 463 kts 136°
2026-05-05 18:09 8.70756 -83.06214 34910 ft 463 kts 137°
2026-05-05 18:09 8.65982 -83.01847 34912 ft 462 kts 137°
2026-05-05 18:10 8.61940 -82.97833 34915 ft 462 kts 127°
2026-05-05 18:12 8.60067 -82.95098 34926 ft 460 kts 119°
2026-05-05 18:13 8.57493 -82.89192 34908 ft 460 kts 111°
2026-05-05 18:13 8.54240 -82.83659 34912 ft 463 kts 130°
2026-05-05 18:14 8.49366 -82.79401 34914 ft 465 kts 142°
2026-05-05 18:14 8.44140 -82.75543 34898 ft 466 kts 142°
2026-05-05 18:15 8.38908 -82.71658 34892 ft 467 kts 142°
2026-05-05 18:15 8.33688 -82.67739 34890 ft 468 kts 142°
2026-05-05 18:16 8.28475 -82.63806 34887 ft 468 kts 142°
2026-05-05 18:16 8.23418 -82.59988 34879 ft 469 kts 142°
2026-05-05 18:17 8.19075 -82.56712 34886 ft 469 kts 142°
2026-05-05 18:17 8.13005 -82.52136 34876 ft 468 kts 142°
2026-05-05 18:18 8.07784 -82.48201 34904 ft 468 kts 142°
2026-05-05 18:18 8.03416 -82.44910 34894 ft 468 kts 142°
2026-05-05 18:19 7.98197 -82.40979 34890 ft 468 kts 142°
2026-05-05 18:19 7.92990 -82.37059 34905 ft 467 kts 142°
2026-05-05 18:20 7.87820 -82.33168 34902 ft 466 kts 142°
2026-05-05 18:20 7.82623 -82.29257 34897 ft 466 kts 142°
2026-05-05 18:21 7.77432 -82.25353 34898 ft 465 kts 142°
2026-05-05 18:21 7.72245 -82.21452 34906 ft 465 kts 142°
2026-05-05 18:22 7.67089 -82.17577 34907 ft 465 kts 142°
2026-05-05 18:22 7.61905 -82.13681 34901 ft 465 kts 142°
2026-05-05 18:23 7.56722 -82.09787 34898 ft 465 kts 142°
2026-05-05 18:23 7.51537 -82.05893 34910 ft 465 kts 142°
2026-05-05 18:24 7.46349 -82.01998 34897 ft 465 kts 142°
2026-05-05 18:24 7.41160 -81.98103 34905 ft 465 kts 142°
2026-05-05 18:25 7.35973 -81.94211 34900 ft 465 kts 142°
2026-05-05 18:25 7.30791 -81.90324 34901 ft 465 kts 142°
2026-05-05 18:26 7.25594 -81.86427 34893 ft 465 kts 142°
2026-05-05 18:26 7.20409 -81.82540 34902 ft 465 kts 142°
2026-05-05 18:27 7.15216 -81.78648 34900 ft 465 kts 142°
2026-05-05 18:27 7.10023 -81.74758 34902 ft 465 kts 142°
2026-05-05 18:28 7.02236 -81.68925 34899 ft 465 kts 142°
2026-05-05 18:28 6.97045 -81.65039 34894 ft 465 kts 142°
2026-05-05 18:29 6.91851 -81.61151 34896 ft 465 kts 142°
2026-05-05 18:29 6.86662 -81.57269 34901 ft 465 kts 142°
2026-05-05 18:30 6.81474 -81.53387 34906 ft 465 kts 142°
2026-05-05 18:30 6.76277 -81.49501 34903 ft 465 kts 142°
2026-05-05 18:31 6.71096 -81.45627 34898 ft 464 kts 142°
2026-05-05 18:31 6.65977 -81.41801 34901 ft 463 kts 142°
2026-05-05 18:32 6.60816 -81.37945 34899 ft 461 kts 142°
2026-05-05 18:32 6.55708 -81.34128 34900 ft 460 kts 142°
2026-05-05 18:33 6.50582 -81.30300 34905 ft 460 kts 142°
2026-05-05 18:33 6.45464 -81.26478 34899 ft 462 kts 142°
2026-05-05 18:34 6.40234 -81.22572 34902 ft 468 kts 142°
2026-05-05 18:34 6.35067 -81.18717 34902 ft 470 kts 142°
2026-05-05 18:35 6.29822 -81.14804 34902 ft 471 kts 142°
2026-05-05 18:35 6.24548 -81.10870 34904 ft 472 kts 142°
2026-05-05 18:36 6.19269 -81.06934 34907 ft 473 kts 142°
2026-05-05 18:36 6.13988 -81.02997 34903 ft 473 kts 142°
2026-05-05 18:37 6.08701 -80.99057 34901 ft 473 kts 142°
2026-05-05 18:37 6.03426 -80.95126 34900 ft 472 kts 142°
2026-05-05 18:38 5.98155 -80.91200 34902 ft 471 kts 142°
2026-05-05 18:38 5.92894 -80.87281 34900 ft 470 kts 142°
2026-05-05 18:39 5.87648 -80.83376 34895 ft 469 kts 142°
2026-05-05 18:39 5.82419 -80.79483 34899 ft 467 kts 142°
2026-05-05 18:40 5.77201 -80.75600 34896 ft 466 kts 142°
2026-05-05 18:40 5.71994 -80.71726 34901 ft 465 kts 142°
2026-05-05 18:41 5.66801 -80.67862 34901 ft 465 kts 142°
2026-05-05 18:41 5.61599 -80.63993 34887 ft 465 kts 142°
2026-05-05 18:42 5.56435 -80.60154 34896 ft 466 kts 142°
2026-05-05 18:42 5.51240 -80.56292 34896 ft 467 kts 142°
2026-05-05 18:43 5.46014 -80.52408 34899 ft 468 kts 142°
2026-05-05 18:43 5.40777 -80.48517 34889 ft 469 kts 142°
2026-05-05 18:44 5.35527 -80.44616 34899 ft 470 kts 142°
2026-05-05 18:44 5.30280 -80.40719 34889 ft 470 kts 142°
2026-05-05 18:45 5.25012 -80.36808 34887 ft 471 kts 142°
2026-05-05 18:45 5.19746 -80.32898 34890 ft 470 kts 142°
2026-05-05 18:46 5.14489 -80.28996 34891 ft 470 kts 142°
2026-05-05 18:46 5.09246 -80.25105 34892 ft 469 kts 142°
2026-05-05 18:47 5.03992 -80.21207 34898 ft 468 kts 142°
2026-05-05 18:47 4.98759 -80.17326 34885 ft 468 kts 142°
2026-05-05 18:48 4.93532 -80.13449 34893 ft 467 kts 142°
2026-05-05 18:48 4.88311 -80.09577 34889 ft 466 kts 142°
2026-05-05 18:49 4.83123 -80.05732 34889 ft 465 kts 142°
2026-05-05 18:49 4.77938 -80.01888 34888 ft 464 kts 142°
2026-05-05 18:50 4.72761 -79.98052 34886 ft 464 kts 142°
2026-05-05 18:50 4.67579 -79.94213 34886 ft 463 kts 142°
2026-05-05 18:51 4.62394 -79.90372 34885 ft 463 kts 142°
2026-05-05 18:51 4.57214 -79.86535 34884 ft 463 kts 142°
2026-05-05 18:52 4.52037 -79.82701 34883 ft 463 kts 142°
2026-05-05 18:52 4.46854 -79.78864 34892 ft 463 kts 142°
2026-05-05 18:53 4.41669 -79.75027 34893 ft 464 kts 142°
2026-05-05 18:53 4.36481 -79.71187 34888 ft 464 kts 142°
2026-05-05 18:54 4.31284 -79.67341 34880 ft 464 kts 142°
2026-05-05 18:54 4.26094 -79.63501 34881 ft 464 kts 142°
2026-05-05 18:55 4.20955 -79.59700 34887 ft 465 kts 142°
2026-05-05 18:55 4.15750 -79.55851 34880 ft 465 kts 142°
2026-05-05 18:56 4.10551 -79.52006 34888 ft 465 kts 142°
2026-05-05 18:56 4.05370 -79.48176 34887 ft 465 kts 142°
2026-05-05 18:57 4.00160 -79.44324 34884 ft 465 kts 142°
2026-05-05 18:57 3.94951 -79.40475 34888 ft 465 kts 142°
2026-05-05 18:58 3.89739 -79.36623 34883 ft 465 kts 142°
2026-05-05 18:58 3.84537 -79.32779 34885 ft 465 kts 142°
2026-05-05 18:59 3.79337 -79.28938 34882 ft 464 kts 142°
2026-05-05 18:59 3.74145 -79.25103 34885 ft 464 kts 142°
2026-05-05 19:00 3.68949 -79.21265 34882 ft 463 kts 142°
2026-05-05 19:00 3.63770 -79.17441 34883 ft 463 kts 142°
2026-05-05 19:01 3.58578 -79.13607 34882 ft 463 kts 142°
2026-05-05 19:01 3.53390 -79.09777 34879 ft 463 kts 142°
2026-05-05 19:02 3.48214 -79.05956 34878 ft 463 kts 142°
2026-05-05 19:02 3.43059 -79.02151 34880 ft 463 kts 142°
2026-05-05 19:03 3.37870 -78.98321 34881 ft 463 kts 142°
2026-05-05 19:03 3.32678 -78.94489 34885 ft 463 kts 142°
2026-05-05 19:04 3.27578 -78.90552 34871 ft 463 kts 135°
2026-05-05 19:04 3.23756 -78.86816 34879 ft 462 kts 133°
2026-05-05 19:05 3.19260 -78.82215 34877 ft 462 kts 133°
2026-05-05 19:05 3.14746 -78.77637 34877 ft 463 kts 133°
2026-05-05 19:06 3.10191 -78.73081 34875 ft 463 kts 133°
2026-05-05 19:06 3.05621 -78.68535 34881 ft 463 kts 134°
2026-05-05 19:07 3.01050 -78.63992 34876 ft 463 kts 133°
2026-05-05 19:07 2.96474 -78.59442 34876 ft 463 kts 133°
2026-05-05 19:08 2.91908 -78.54901 34873 ft 463 kts 133°
2026-05-05 19:08 2.87348 -78.50366 34874 ft 462 kts 133°
2026-05-05 19:09 2.82818 -78.45861 34867 ft 462 kts 133°
2026-05-05 19:09 2.78258 -78.41327 34869 ft 462 kts 133°
2026-05-05 19:10 2.73675 -78.36771 34868 ft 462 kts 133°
2026-05-05 19:10 2.69150 -78.32273 34868 ft 461 kts 133°
2026-05-05 19:11 2.64601 -78.27751 34868 ft 461 kts 133°
2026-05-05 19:11 2.60028 -78.23207 34268 ft 466 kts 133°
2026-05-05 19:12 2.57731 -78.20924 33667 ft 463 kts 133°
2026-05-05 19:12 2.55451 -78.18659 33083 ft 460 kts 133°
2026-05-05 19:12 2.53201 -78.16424 32631 ft 454 kts 133°
2026-05-05 19:12 2.50973 -78.14212 32174 ft 448 kts 133°
2026-05-05 19:13 2.48777 -78.12030 31727 ft 443 kts 133°
2026-05-05 19:13 2.46603 -78.09871 31296 ft 438 kts 133°
2026-05-05 19:13 2.44455 -78.07736 30864 ft 433 kts 133°
2026-05-05 19:13 2.42326 -78.05621 30445 ft 429 kts 133°
2026-05-05 19:14 2.40220 -78.03529 29995 ft 426 kts 134°
2026-05-05 19:14 2.38130 -78.01452 29509 ft 421 kts 134°
2026-05-05 19:14 2.36062 -77.99399 29036 ft 416 kts 133°
2026-05-05 19:14 2.34019 -77.97370 28587 ft 412 kts 133°
2026-05-05 19:15 2.32001 -77.95366 28137 ft 407 kts 133°
2026-05-05 19:15 2.30002 -77.93381 27712 ft 402 kts 133°
2026-05-05 19:15 2.28029 -77.91421 27287 ft 398 kts 133°
2026-05-05 19:15 2.26071 -77.89476 26873 ft 395 kts 133°
2026-05-05 19:16 2.24131 -77.87550 26454 ft 392 kts 133°
2026-05-05 19:16 2.22200 -77.85632 26035 ft 390 kts 133°
2026-05-05 19:16 2.20285 -77.83730 25616 ft 387 kts 133°
2026-05-05 19:16 2.18383 -77.81842 25196 ft 385 kts 133°
2026-05-05 19:17 2.16485 -77.79957 24785 ft 384 kts 133°
2026-05-05 19:17 2.14590 -77.78076 24368 ft 382 kts 133°
2026-05-05 19:17 2.12716 -77.76215 23955 ft 380 kts 133°
2026-05-05 19:17 2.10839 -77.74351 23533 ft 379 kts 133°
2026-05-05 19:18 2.08974 -77.72500 23066 ft 377 kts 133°
2026-05-05 19:18 2.07118 -77.70657 22645 ft 374 kts 133°
2026-05-05 19:18 2.05284 -77.68837 22223 ft 371 kts 133°
2026-05-05 19:18 2.03462 -77.67029 21821 ft 367 kts 133°
2026-05-05 19:19 2.01657 -77.65237 21453 ft 364 kts 133°
2026-05-05 19:19 1.99871 -77.63464 21055 ft 361 kts 133°
2026-05-05 19:19 1.98115 -77.61721 20685 ft 359 kts 133°
2026-05-05 19:19 1.96324 -77.59943 20260 ft 357 kts 133°
2026-05-05 19:20 1.94569 -77.58201 19872 ft 355 kts 133°
2026-05-05 19:20 1.92830 -77.56474 19480 ft 354 kts 133°
2026-05-05 19:20 1.91087 -77.54743 19093 ft 352 kts 133°
2026-05-05 19:20 1.89355 -77.53024 18702 ft 351 kts 133°
2026-05-05 19:21 1.87625 -77.51308 18316 ft 349 kts 133°
2026-05-05 19:21 1.86030 -77.49494 17885 ft 347 kts 121°
2026-05-05 19:21 1.84923 -77.47402 17511 ft 341 kts 110°
2026-05-05 19:21 1.84288 -77.45190 17099 ft 336 kts 100°
2026-05-05 19:22 1.83866 -77.42916 16777 ft 330 kts 99°
2026-05-05 19:22 1.83476 -77.40670 16399 ft 326 kts 99°
2026-05-05 19:22 1.83090 -77.38448 15981 ft 323 kts 99°
2026-05-05 19:22 1.82697 -77.36224 15500 ft 324 kts 100°
2026-05-05 19:23 1.82301 -77.34016 15124 ft 323 kts 100°
2026-05-05 19:23 1.81912 -77.31871 14751 ft 322 kts 101°
2026-05-05 19:23 1.81518 -77.29713 14609 ft 312 kts 101°
2026-05-05 19:23 1.81133 -77.27614 14473 ft 302 kts 101°
2026-05-05 19:24 1.80761 -77.25586 14360 ft 292 kts 101°
2026-05-05 19:24 1.80400 -77.23619 14251 ft 283 kts 101°
2026-05-05 19:24 1.80050 -77.21715 14170 ft 274 kts 101°
2026-05-05 19:24 1.79582 -77.19900 14047 ft 266 kts 115°
2026-05-05 19:25 1.78449 -77.18508 14040 ft 257 kts 140°
2026-05-05 19:25 1.76861 -77.17684 13854 ft 262 kts 161°
2026-05-05 19:25 1.75012 -77.17479 13548 ft 276 kts 181°
2026-05-05 19:25 1.73121 -77.17997 13270 ft 289 kts 201°
2026-05-05 19:26 1.71328 -77.18897 12958 ft 290 kts 204°
2026-05-05 19:26 1.69581 -77.19832 12674 ft 288 kts 205°
2026-05-05 19:26 1.67817 -77.20781 12379 ft 288 kts 205°
2026-05-05 19:26 1.66056 -77.21721 12077 ft 286 kts 205°
2026-05-05 19:27 1.64300 -77.22650 11801 ft 285 kts 204°
2026-05-05 19:27 1.62555 -77.23573 11546 ft 283 kts 204°
2026-05-05 19:27 1.60835 -77.24470 11215 ft 284 kts 204°
2026-05-05 19:27 1.59072 -77.25392 10913 ft 285 kts 205°
2026-05-05 19:28 1.57331 -77.26301 10753 ft 279 kts 204°
2026-05-05 19:28 1.55629 -77.27191 10630 ft 272 kts 204°
2026-05-05 19:28 1.53974 -77.28056 10377 ft 264 kts 204°
2026-05-05 19:28 1.52408 -77.28876 10131 ft 245 kts 203°
2026-05-05 19:29 1.50958 -77.29634 9866 ft 225 kts 202°
2026-05-05 19:29 1.49622 -77.30332 9631 ft 208 kts 202°
2026-05-05 19:29 1.48404 -77.30967 9473 ft 189 kts 204°
2026-05-05 19:29 1.47263 -77.31562 9244 ft 183 kts 204°
2026-05-05 19:30 1.46167 -77.32131 9077 ft 183 kts 205°
2026-05-05 19:30 1.45033 -77.32722 8883 ft 184 kts 204°
2026-05-05 19:30 1.43912 -77.33307 8767 ft 186 kts 205°
2026-05-05 19:30 1.42790 -77.33918 8716 ft 182 kts 206°
2026-05-05 19:31 1.41703 -77.34516 8738 ft 178 kts 206°
2026-05-05 19:31 1.40614 -77.35096 8836 ft 181 kts 202°
2026-05-05 19:31 1.39455 -77.35608 8425 ft 182 kts 200°
2026-05-05 19:31 1.38257 -77.36000 8083 ft 171 kts 193°
2026-05-05 19:32 1.37112 -77.36165 8112 ft 172 kts 180°
2026-05-05 19:32 1.35920 -77.36099 8002 ft 175 kts 168°
2026-05-05 19:32 1.34835 -77.35559 7674 ft 180 kts 135°
2026-05-05 19:32 1.34153 -77.34559 7498 ft 172 kts 110°
2026-05-05 19:33 1.33929 -77.33408 7237 ft 167 kts 90°
2026-05-05 19:33 1.34169 -77.32288 6964 ft 166 kts 62°
2026-05-05 19:33 1.34825 -77.31356 6793 ft 164 kts 49°
2026-05-05 19:33 1.35611 -77.30467 6332 ft 171 kts 36°
2026-05-05 19:34 1.36637 -77.30006 5964 ft 160 kts 10°
2026-05-05 19:34 1.37619 -77.29696 6193 ft 156 kts 21°
2026-05-05 19:34 1.38739 -77.29329 6003 ft 172 kts 11°
2026-05-05 19:35 1.40574 -77.28829 5852 ft 54 kts 37°
2026-05-05 19:35 1.40635 -77.28805 5845 ft 0 kts 351°
2026-05-05 19:35 1.40636 -77.28805 5845 ft 0 kts 351°
2026-05-05 19:40 1.39611 -77.28976 5907 ft 0 kts 105°